TimeEST,TemperatureF,Dew PointF,Humidity,Sea Level PressureIn,VisibilityMPH,Wind Direction,Wind SpeedMPH,Gust SpeedMPH,PrecipitationIn,Events,Conditions,WindDirDegrees,DateUTC
12:15 AM,18.0,10.4,72,29.60,5.0,WSW,12.7,17.3,N/A,Snow,Light Snow,240,2012-12-23 05:15:00
12:35 AM,18.1,10.6,72,29.61,4.0,WSW,6.9,-,N/A,Snow,Light Snow,240,2012-12-23 05:35:00
12:55 AM,18.0,11.5,76,29.62,4.0,WSW,4.6,-,N/A,Snow,Light Snow,250,2012-12-23 05:55:00
1:15 AM,18.0,11.5,76,29.62,5.0,WSW,8.1,17.3,N/A,Snow,Light Snow,240,2012-12-23 06:15:00
1:35 AM,18.1,11.1,74,29.62,5.0,West,10.4,17.3,N/A,Snow,Light Snow,260,2012-12-23 06:35:00
1:55 AM,18.0,11.3,75,29.63,3.0,WSW,11.5,23.0,N/A,Snow,Light Snow,240,2012-12-23 06:55:00
2:15 AM,17.8,11.3,76,29.64,3.0,WSW,10.4,19.6,N/A,Snow,Light Snow,250,2012-12-23 07:15:00
2:35 AM,17.6,10.9,75,29.65,4.0,WSW,11.5,19.6,N/A,Snow,Light Snow,250,2012-12-23 07:35:00
2:55 AM,17.6,10.2,73,29.66,7.0,SW,16.1,23.0,N/A,Snow,Light Snow,230,2012-12-23 07:55:00
3:15 AM,17.6,9.7,71,29.66,10.0,WSW,12.7,26.5,N/A,Snow,Light Snow,240,2012-12-23 08:15:00
3:35 AM,17.4,9.7,72,29.66,7.0,WSW,12.7,20.7,N/A,Snow,Light Snow,240,2012-12-23 08:35:00
3:55 AM,17.2,9.1,71,29.66,7.0,SW,18.4,28.8,N/A,Snow,Light Snow,230,2012-12-23 08:55:00
4:15 AM,17.1,9.1,71,29.66,7.0,WSW,13.8,23.0,N/A,Snow,Light Snow,240,2012-12-23 09:15:00
4:35 AM,17.1,9.3,72,29.66,7.0,WSW,15.0,26.5,N/A,Snow,Light Snow,250,2012-12-23 09:35:00
4:55 AM,16.9,9.5,73,29.67,4.0,WSW,15.0,24.2,N/A,Snow,Light Snow,240,2012-12-23 09:55:00
5:15 AM,16.7,9.1,72,29.68,5.0,WSW,18.4,29.9,N/A,Snow,Light Snow,250,2012-12-23 10:15:00
5:35 AM,16.7,8.4,70,29.67,3.0,WSW,25.3,34.5,N/A,Snow,Light Snow,250,2012-12-23 10:35:00
5:55 AM,16.5,7.7,68,29.69,5.0,WSW,21.9,32.2,N/A,Snow,Light Snow,250,2012-12-23 10:55:00
6:15 AM,16.2,8.2,71,29.70,7.0,SW,15.0,25.3,N/A,Snow,Light Snow,230,2012-12-23 11:15:00
6:35 AM,16.2,8.2,71,29.71,7.0,SW,15.0,23.0,N/A,Snow,Light Snow,230,2012-12-23 11:35:00
6:55 AM,15.8,7.2,69,29.72,10.0,SW,13.8,27.6,N/A,,Scattered Clouds,230,2012-12-23 11:55:00
7:15 AM,15.6,6.8,68,29.73,10.0,SW,8.1,18.4,N/A,,Clear,230,2012-12-23 12:15:00
7:35 AM,15.3,6.8,69,29.72,10.0,SW,10.4,17.3,N/A,,Clear,230,2012-12-23 12:35:00
7:55 AM,15.6,6.8,68,29.73,10.0,SW,6.9,-,N/A,,Scattered Clouds,230,2012-12-23 12:55:00
8:15 AM,16.2,7.7,69,29.73,7.0,SW,5.8,-,N/A,Snow,Light Snow,230,2012-12-23 13:15:00
8:35 AM,16.2,7.9,70,29.74,10.0,SW,4.6,-,N/A,Snow,Light Snow,230,2012-12-23 13:35:00
8:55 AM,16.3,7.7,69,29.74,10.0,WSW,4.6,-,N/A,,Overcast,250,2012-12-23 13:55:00
9:15 AM,16.5,7.7,68,29.74,10.0,WSW,4.6,-,N/A,Snow,Light Snow,240,2012-12-23 14:15:00
9:35 AM,17.6,8.8,68,29.73,10.0,Calm,Calm,-,N/A,,Mostly Cloudy,0,2012-12-23 14:35:00
9:55 AM,18.0,9.0,68,29.73,10.0,WSW,5.8,-,N/A,,Overcast,250,2012-12-23 14:55:00
10:15 AM,19.2,9.3,65,29.74,10.0,WSW,4.6,-,N/A,,Overcast,250,2012-12-23 15:15:00
10:35 AM,20.1,10.0,65,29.73,10.0,SW,4.6,-,N/A,,Overcast,230,2012-12-23 15:35:00
10:55 AM,20.7,10.4,65,29.73,10.0,WSW,5.8,-,N/A,,Overcast,240,2012-12-23 15:55:00
11:15 AM,21.4,10.6,63,29.72,10.0,WSW,6.9,-,N/A,,Overcast,250,2012-12-23 16:15:00
11:35 AM,21.7,10.4,62,29.72,10.0,WSW,8.1,16.1,N/A,,Overcast,250,2012-12-23 16:35:00
11:55 AM,22.1,10.8,62,29.72,10.0,WSW,5.8,-,N/A,,Overcast,250,2012-12-23 16:55:00
12:15 PM,22.1,10.6,61,29.71,10.0,WSW,5.8,-,N/A,,Mostly Cloudy,240,2012-12-23 17:15:00
12:35 PM,22.1,11.7,64,29.70,10.0,SW,3.5,-,N/A,,Mostly Cloudy,230,2012-12-23 17:35:00
12:55 PM,22.8,12.4,64,29.70,10.0,Calm,Calm,-,N/A,,Overcast,0,2012-12-23 17:55:00
1:15 PM,23.5,12.9,64,29.70,10.0,Calm,Calm,-,N/A,,Overcast,0,2012-12-23 18:15:00
1:35 PM,23.9,13.6,65,29.70,10.0,West,5.8,-,N/A,,Overcast,270,2012-12-23 18:35:00
1:55 PM,24.4,14.0,65,29.70,10.0,West,10.4,-,N/A,,Overcast,270,2012-12-23 18:55:00
2:15 PM,24.8,14.5,65,29.70,10.0,WSW,6.9,-,N/A,,Overcast,240,2012-12-23 19:15:00
2:35 PM,24.8,14.9,66,29.70,10.0,WSW,8.1,-,N/A,,Overcast,250,2012-12-23 19:35:00
2:55 PM,24.8,15.3,67,29.70,10.0,West,4.6,-,N/A,,Overcast,260,2012-12-23 19:55:00
3:15 PM,24.8,15.8,69,29.69,10.0,Calm,Calm,-,N/A,,Overcast,0,2012-12-23 20:15:00
3:35 PM,24.8,16.0,69,29.69,10.0,Calm,Calm,-,N/A,,Overcast,0,2012-12-23 20:35:00
3:55 PM,24.8,16.7,71,29.69,10.0,SW,4.6,-,N/A,,Overcast,230,2012-12-23 20:55:00
4:15 PM,24.8,18.0,75,29.70,5.0,SW,5.8,-,N/A,Snow,Light Snow,220,2012-12-23 21:15:00
4:35 PM,24.8,18.5,77,29.70,10.0,SSW,3.5,-,N/A,,Overcast,210,2012-12-23 21:35:00
4:55 PM,24.8,18.5,77,29.70,7.0,SSW,3.5,-,N/A,Snow,Light Snow,210,2012-12-23 21:55:00
5:15 PM,24.8,19.6,81,29.71,4.0,SSW,3.5,-,N/A,Snow,Light Snow,210,2012-12-23 22:15:00
5:35 PM,24.6,20.3,84,29.71,4.0,SSW,4.6,-,N/A,Snow,Light Snow,210,2012-12-23 22:35:00
5:55 PM,24.8,21.0,86,29.71,3.0,SW,3.5,-,N/A,Snow,Light Snow,220,2012-12-23 22:55:00
6:15 PM,24.6,21.2,87,29.71,2.0,Calm,Calm,-,N/A,Snow,Light Snow,0,2012-12-23 23:15:00
6:35 PM,24.8,21.4,87,29.71,3.0,Calm,Calm,-,N/A,Snow,Light Snow,0,2012-12-23 23:35:00
6:55 PM,24.6,21.6,88,29.71,2.5,Calm,Calm,-,N/A,Snow,Light Snow,0,2012-12-23 23:55:00
7:15 PM,24.8,21.9,89,29.70,2.0,Calm,Calm,-,N/A,Snow,Light Snow,0,2012-12-24 00:15:00
7:35 PM,24.8,21.7,88,29.70,2.0,Calm,Calm,-,N/A,Snow,Light Snow,0,2012-12-24 00:35:00
7:55 PM,24.8,21.9,89,29.70,0.8,Calm,Calm,-,N/A,Snow,Snow,0,2012-12-24 00:55:00
8:15 PM,24.8,22.1,89,29.70,1.5,Calm,Calm,-,N/A,Snow,Light Snow,0,2012-12-24 01:15:00
8:35 PM,24.8,22.1,89,29.70,2.0,Calm,Calm,-,N/A,Snow,Light Snow,0,2012-12-24 01:35:00
8:55 PM,25.2,22.5,89,29.71,2.0,Calm,Calm,-,N/A,Snow,Light Snow,0,2012-12-24 01:55:00
9:15 PM,25.2,22.5,89,29.71,2.0,Calm,Calm,-,N/A,Snow,Light Snow,0,2012-12-24 02:15:00
9:55 PM,25.2,22.1,88,29.74,2.5,Calm,Calm,-,N/A,Snow,Light Snow,0,2012-12-24 02:55:00
10:15 PM,25.9,22.1,86,29.74,10.0,WNW,3.5,-,N/A,,Overcast,290,2012-12-24 03:15:00
10:35 PM,26.6,21.2,80,29.76,10.0,West,3.5,-,N/A,,Overcast,280,2012-12-24 03:35:00
10:55 PM,26.1,19.8,77,29.76,7.0,West,15.0,23.0,N/A,,Overcast,280,2012-12-24 03:55:00
11:15 PM,24.3,18.3,78,29.76,7.0,WNW,15.0,25.3,N/A,,Overcast,290,2012-12-24 04:15:00
11:35 PM,23.2,17.2,78,29.77,7.0,WNW,12.7,18.4,N/A,Snow,Light Snow,290,2012-12-24 04:35:00
11:55 PM,22.8,15.8,74,29.79,7.0,WNW,8.1,16.1,N/A,Snow,Light Snow,290,2012-12-24 04:55:00